Back to catalog

ARTEMIS P1

THEMIS B

AliveScienceLPO
NORAD 30581·PAYLOAD·🇺🇸 United States

Launched Feb 17, 2007 from Cape Canaveral Space Force Station

Loading…

TLE

StaleSource: Space-Track

Epoch: Apr 5, 2010, 21:29 UTC

1 30581U 07004B   10095.89583333 -.15399425  00000-0  99999-4 0  9993
2 30581 016.6405 318.7761 9672524 258.4792 301.1994 00.02053516  6438

Track ARTEMIS P1 in real time with AllMySat

Download on the App Store